This demonstration page uses our WeatherBlox Daily Observations layout. Learn more.

Left ArrowRight Arrow

39.08367, -84.50855

Hourly Observations for January 5, 2015

Temp ( °F °C ) Dew Point ( °F °C ) Humidity (%) Winds ( mph kmh ) Pressure ( in mb ) Visibility ( mi km ) Precip ( " mm )
12:53 am 00:53 Cloudy with Light Snow 23 -5 16 -8.9 74 74 W 16 26 30.46 1031 8 12.87472 0 0.0254
1:53 am 01:53 Cloudy 21 -6.1 12 -11.1 68 68 W 18 30 30.5 1033 10 16.0934 0 0.0254
2:21 am 02:21 Cloudy 20 -6.7 11 -11.7 68 68 W 21 33 30.53 1034 10 16.0934 0 0
2:32 am 02:32 Mostly Cloudy 19 -7 10 -12 68 68 WNW 14 22 30.56 1035 10 16.0934 0 0
2:53 am 02:53 Mostly Cloudy 19 -7.2 9 -12.8 65 65 W 21 33 30.55 1034 10 16.0934 0 0
3:43 am 03:43 Partly Cloudy 18 -7.8 10 -12.2 71 71 W 17 28 30.56 1035 10 16.0934 0 0
3:53 am 03:53 Partly Cloudy 18 -7.8 10 -12.2 71 71 W 16 26 30.56 1035 10 16.0934 0 0
4:53 am 04:53 Clear 16 -8.9 6 -14.4 65 65 W 16 26 30.58 1036 10 16.0934 0 0
5:53 am 05:53 Clear 15 -9.4 5 -15 64 64 W 13 20 30.6 1036 10 16.0934 0 0
6:53 am 06:53 Mostly Clear 15 -9.4 4 -15.6 61 61 NW 9 15 30.62 1037 10 16.0934 0 0
7:53 am 07:53 Clear 14 -10 6 -14.4 71 71 W 12 19 30.65 1038 10 16.0934 0 0
8:53 am 08:53 Sunny 15 -9.4 3 -16.1 59 59 W 9 15 30.67 1039 10 16.0934 0 0
9:53 am 09:53 Partly Cloudy 16 -8.9 5 -15 62 62 WNW 9 15 30.71 1040 10 16.0934 0 0
10:53 am 10:53 Sunny 16 -8.9 3 -16.1 56 56 W 12 19 30.71 1040 10 16.0934 0 0
11:53 am 11:53 Sunny 18 -7.8 4 -15.6 54 54 W 14 22 30.69 1039 10 16.0934 0 0
12:53 pm 12:53 Sunny 19 -7.2 3 -16.1 49 49 WNW 10 17 30.66 1038 10 16.0934 0 0
1:53 pm 13:53 Sunny 19 -7.2 4 -15.6 51 51 SSW 6 9 30.63 1037 10 16.0934 0 0
2:53 pm 14:53 Sunny 20 -6.7 3 -16.1 48 48 VRB 6 9 30.62 1037 10 16.0934 0 0
3:53 pm 15:53 Sunny 20 -6.7 5 -15 52 52 WSW 10 17 30.62 1037 10 16.0934 0 0
4:53 pm 16:53 Sunny 20 -6.7 5 -15 52 52 SW 8 13 30.62 1037 10 16.0934 0 0
5:53 pm 17:53 Mostly Cloudy 20 -6.7 4 -15.6 50 50 WSW 8 13 30.61 1037 10 16.0934 0 0
6:53 pm 18:53 Mostly Cloudy 20 -6.7 4 -15.6 50 50 SSW 3 6 30.57 1035 10 16.0934 0 0
7:53 pm 19:53 Mostly Cloudy 20 -6.7 6 -14.4 55 55 Calm 30.53 1034 10 16.0934 0 0
8:53 pm 20:53 Cloudy 20 -6.7 7 -13.9 57 57 Calm 30.52 1034 10 16.0934 0 0
9:53 pm 21:53 Cloudy with Light Snow 19 -7.2 12 -11.1 74 74 SSW 9 15 30.49 1033 3 4.82802 0 0.0254
10:08 pm 22:08 Cloudy with Light Snow 19 -7 12 -11 73 73 S 8 13 30.48 1032 2.5 4.02335 0 0
10:46 pm 22:46 Cloudy with Light Snow 18 -8 14 -10 86 86 SE 3 6 30.45 1031 3 4.82802 0 0
10:53 pm 22:53 Cloudy with Light Snow 18 -7.8 14 -10 84 84 Calm 30.44 1031 5 8.0467 0 0.0254
11:53 pm 23:53 Cloudy 19 -7.2 14 -10 81 81 S 3 6 30.41 1030 10 16.0934 0 0.0254

Powered by AerisWeather